FENGYUN 1C DEB

Satellite information

Favourite Embed

Satellite Type and Status

DEBRISIN ORBIT

Key statistics

Satellite FENGYUN 1C DEB at a glance.

Uptime

9500

Days in orbit

Revolutions

≈ 14.1

Per day

Orbit

SSO

Sun Synchronous Orbit

Inclination

99.1

Latest

Satellite identification and parameters

Extended collection of information and parameters for FENGYUN 1C DEB.

Object identification

Identified? True

Debris? True

Object name: FENGYUN 1C DEB

International designator: 1999-025BMA

Object number (NORAD): 31244

Object ID (CCSDS): 31244

Country: PEOPLES REPUBLIC OF CHINA (PRC)

Current information (Y/N): Y

RCS size: SMALL

Orbital parameters

Period: 102.424 minutes

Inclination: 99.0533 deg

SMA: 7251.493 km

Apoapsis: 948.867 km

Periapsis: 797.848 km

RAAN: 179.2576 deg

Eccentricy: 0.0104129

Argument of periapsis: 100.3242 deg

Mean anomaly: 260.9684 deg

Mean motion: 14.05923391 rev/day

Mean motion (dot): 0.00000983 rev/day2

B* drag term: 0.00059725 1/REarth

Two-line elements (TLE)

Creation date: April 25, 2025, 8:55 p.m.

Reference frame: TEME

Reference center: EARTH

Epoch: April 25, 2025, 10:21 a.m. UTC

TLE line 0: 0 FENGYUN 1C DEB

TLE line 1: 1 31244U 99025BMA 25115.43162777 .00000983 00000-0 59725-3 0 9991

TLE line 2: 2 31244 99.0533 179.2576 0104129 100.3242 260.9684 14.05923391543892

Live tracking on map

Real-time ground track for satellite FENGYUN 1C DEB.

In-orbit conjunctions

A list of the most updated potential collisions computed for object FENGYUN 1C DEB.

Target Orbit TCA Probability of collision Miss distance Type
COSMOS 1844 LEO 2024-09-11 18:22:18 0.0007944792 97.0 (m) PAYLOAD
SCOUT G-1 DEB SSO 2024-08-04 18:08:51 0.0001695398 80.0 (m) DEBRIS

Associated space launch

Chinese polar orbiting meteorological satellite

FENGYUN 1C DEB was lifted into orbit during the mission ‘Long March 4B | Feng Yun 1C’, on board a Long March 4B space rocket.

The launch took place on May 10, 1999, 1:33 a.m. from Launch Complex 7.

For more information about the launch, click the button.

Launch to space Long March 4B | Feng Yun 1C
Long March 4B | Feng Yun 1C

Agency: N/A

Status: Launch Successful

Launch date: May 10, 1999, 1:33 a.m. UTC

Rocket: Long March 4B

Launch pad: Launch Complex 7

Location: Taiyuan Satellite Launch Center, People's Republic of China

...

Latest news about this satellite

There are no fresh news available about this satellite. Check back as we update our databases every day.


Newsletter sign-up

Weekly statistics, charts and insights to help you stay on top of the space industry.